Project,Study,Ord_Occ,Event_Num,Date_Time_UTC,Date_Time_PST,Lat_Dec,Lon_Dec,Sta_ID,Line,Sta,Depth,Pressure,Temp0,Temp1,Salt0,CorrSalt0,Salt1,CorrSalt1,O2ml/L,AveCorrO2ml/L,StaCorrO2ml/L,FluorV,AveEstChl,StaEstChl,ISUSV,AveEstNO3,StaEstNO3,SigThetaTS0,SigThetaTS1,BAT,XMiss,SPAR,PAR,BTL_Depth,BTL_Temp,BTL_Salt,BTL_O2ml/L,BTL_Chl,BTL_Pha,BTL_NO3
CalCOFI,0701JD,065,647,28-Jan-2007 1:14:03 PM,28-Jan-2007 5:14:03 AM,34.44882,-120.52590,080.0 051.0,080.0,051.0,70.000,70.518,12.7506,12.7504,33.5911,33.5898,33.5895,33.5896,4.13736,5.01,5.00,0.1084,0.27,0.34,0.7684,12.06,7.808,25.3525,25.3513,0.5326,87.5333,3.5526e+00,9.9990e+03,71,12.75 ,33.592, 4.96,.31,.33,7.6
CalCOFI,0701JD,065,647,28-Jan-2007 1:14:24 PM,28-Jan-2007 5:14:24 AM,34.44882,-120.52600,080.0 051.0,080.0,051.0,69.000,69.510,12.7395,12.7399,33.5913,33.5900,33.5896,33.5897,4.12952,5.00,4.99,0.1003,0.25,0.33,0.7376,11.16,6.972,25.3548,25.3534,0.5349,87.4827,3.6611e+00,9.9990e+03,,,,,,,
CalCOFI,0701JD,065,647,28-Jan-2007 1:14:28 PM,28-Jan-2007 5:14:28 AM,34.44882,-120.52600,080.0 051.0,080.0,051.0,68.000,68.503,12.7419,12.7418,33.5914,33.5901,33.5897,33.5898,4.13616,5.01,5.00,0.0997,0.25,0.33,0.7301,10.94,6.768,25.3544,25.3531,0.5309,87.5701,3.5370e+00,9.9990e+03,,,,,,,
CalCOFI,0701JD,065,647,28-Jan-2007 1:14:31 PM,28-Jan-2007 5:14:31 AM,34.44882,-120.52600,080.0 051.0,080.0,051.0,67.000,67.495,12.7469,12.7478,33.5920,33.5907,33.5896,33.5897,4.15857,5.04,5.03,0.0877,0.21,0.31,0.7388,11.19,7.005,25.3538,25.3518,0.5302,87.5868,3.7770e+00,9.9990e+03,,,,,,,
CalCOFI,0701JD,065,647,28-Jan-2007 1:14:33 PM,28-Jan-2007 5:14:33 AM,34.44882,-120.52600,080.0 051.0,080.0,051.0,66.000,66.488,12.7808,12.7780,33.5913,33.5900,33.5890,33.5891,4.16923,5.05,5.04,0.0933,0.23,0.32,0.7510,11.55,7.336,25.3467,25.3454,0.5301,87.5885,4.0801e+00,9.9990e+03,,,,,,,
CalCOFI,0701JD,065,647,28-Jan-2007 1:14:34 PM,28-Jan-2007 5:14:34 AM,34.44882,-120.52600,080.0 051.0,080.0,051.0,65.000,65.480,12.7974,12.7974,33.5905,33.5892,33.5886,33.5887,4.18009,5.06,5.06,0.0998,0.25,0.33,0.7432,11.32,7.124,25.3427,25.3413,0.5279,87.6355,3.7599e+00,9.9990e+03,,,,,,,
CalCOFI,0701JD,065,647,28-Jan-2007 1:14:36 PM,28-Jan-2007 5:14:36 AM,34.44882,-120.52600,080.0 051.0,080.0,051.0,64.000,64.472,12.7991,12.7998,33.5907,33.5894,33.5889,33.5890,4.17306,5.05,5.05,0.1059,0.27,0.34,0.7224,10.71,6.560,25.3425,25.3410,0.5281,87.6325,3.6984e+00,9.9990e+03,,,,,,,
CalCOFI,0701JD,065,647,28-Jan-2007 1:14:38 PM,28-Jan-2007 5:14:38 AM,34.44882,-120.52604,080.0 051.0,080.0,051.0,63.000,63.465,12.8090,12.8125,33.5888,33.5875,33.5862,33.5863,4.09034,4.95,4.95,0.1025,0.26,0.33,0.7210,10.67,6.522,25.3390,25.3364,0.5249,87.7021,3.7329e+00,9.9990e+03,,,,,,,
CalCOFI,0701JD,065,647,28-Jan-2007 1:14:41 PM,28-Jan-2007 5:14:41 AM,34.44882,-120.52618,080.0 051.0,080.0,051.0,62.000,62.457,12.8185,12.8191,33.5844,33.5831,33.5827,33.5828,4.02003,4.87,4.86,0.0992,0.25,0.33,0.7441,11.35,7.148,25.3337,25.3324,0.5128,87.9690,4.1161e+00,9.9990e+03,,,,,,,
CalCOFI,0701JD,065,647,28-Jan-2007 1:14:43 PM,28-Jan-2007 5:14:43 AM,34.44882,-120.52618,080.0 051.0,080.0,051.0,61.000,61.450,12.8166,12.8170,33.5833,33.5820,33.5818,33.5819,3.99854,4.84,4.83,0.0993,0.25,0.33,0.7373,11.15,6.964,25.3333,25.3320,0.5086,88.0593,4.0087e+00,9.9990e+03,61,12.82 ,33.584, 4.77,.26,.31,8.2
CalCOFI,0701JD,065,647,28-Jan-2007 1:15:31 PM,28-Jan-2007 5:15:31 AM,34.44882,-120.52634,080.0 051.0,080.0,051.0,60.000,60.442,12.8130,12.8136,33.5837,33.5824,33.5817,33.5818,3.96382,4.80,4.79,0.0858,0.21,0.31,0.7477,11.46,7.246,25.3342,25.3326,0.5071,88.0926,3.9958e+00,9.9990e+03,,,,,,,
CalCOFI,0701JD,065,647,28-Jan-2007 1:16:01 PM,28-Jan-2007 5:16:01 AM,34.44882,-120.52651,080.0 051.0,080.0,051.0,59.000,59.435,12.8096,12.8094,33.5821,33.5808,33.5803,33.5804,3.88824,4.71,4.70,0.0898,0.22,0.31,0.7285,10.89,6.725,25.3336,25.3323,0.5053,88.1335,3.9998e+00,9.9990e+03,,,,,,,
CalCOFI,0701JD,065,647,28-Jan-2007 1:16:01 PM,28-Jan-2007 5:16:01 AM,34.44882,-120.52650,080.0 051.0,080.0,051.0,58.000,58.427,12.8119,12.8132,33.5808,33.5795,33.5785,33.5786,3.86128,4.67,4.66,0.0807,0.19,0.30,0.7530,11.61,7.390,25.3321,25.3301,0.4995,88.2600,3.9162e+00,9.9990e+03,,,,,,,
CalCOFI,0701JD,065,647,28-Jan-2007 1:16:02 PM,28-Jan-2007 5:16:02 AM,34.44882,-120.52650,080.0 051.0,080.0,051.0,57.000,57.420,12.8248,12.8272,33.5780,33.5767,33.5756,33.5757,3.83981,4.65,4.64,0.0747,0.18,0.30,0.7681,12.05,7.800,25.3275,25.3251,0.4948,88.3646,3.6410e+00,9.9990e+03,,,,,,,
CalCOFI,0701JD,065,647,28-Jan-2007 1:16:03 PM,28-Jan-2007 5:16:03 AM,34.44882,-120.52650,080.0 051.0,080.0,051.0,56.000,56.412,12.8450,12.8461,33.5757,33.5744,33.5741,33.5742,3.82210,4.63,4.61,0.0763,0.18,0.30,0.7960,12.87,8.557,25.3217,25.3202,0.4934,88.3964,4.1082e+00,9.9990e+03,,,,,,,
CalCOFI,0701JD,065,647,28-Jan-2007 1:16:05 PM,28-Jan-2007 5:16:05 AM,34.44882,-120.52650,080.0 051.0,080.0,051.0,55.000,55.405,12.8462,12.8500,33.5758,33.5745,33.5738,33.5739,3.81031,4.61,4.60,0.2070,0.58,0.79,0.7958,12.87,8.551,25.3215,25.3192,0.4903,88.4644,3.9808e+00,9.9990e+03,,,,,,,
CalCOFI,0701JD,065,647,28-Jan-2007 1:16:07 PM,28-Jan-2007 5:16:07 AM,34.44882,-120.52650,080.0 051.0,080.0,051.0,54.000,54.397,12.8502,12.8533,33.5756,33.5743,33.5736,33.5737,3.79978,4.60,4.59,0.0802,0.19,0.30,0.7884,12.65,8.351,25.3205,25.3184,0.4912,88.4446,4.1334e+00,9.9990e+03,,,,,,,
CalCOFI,0701JD,065,647,28-Jan-2007 1:16:09 PM,28-Jan-2007 5:16:09 AM,34.44882,-120.52650,080.0 051.0,080.0,051.0,53.000,53.390,12.8619,12.8624,33.5745,33.5732,33.5731,33.5732,3.78604,4.58,4.57,0.0755,0.18,0.30,0.7888,12.66,8.361,25.3174,25.3162,0.4928,88.4097,4.0107e+00,9.9990e+03,,,,,,,
CalCOFI,0701JD,065,647,28-Jan-2007 1:16:11 PM,28-Jan-2007 5:16:11 AM,34.44882,-120.52650,080.0 051.0,080.0,051.0,52.000,52.382,12.8625,12.8632,33.5742,33.5729,33.5727,33.5728,3.78369,4.58,4.57,0.1068,0.27,0.34,0.7902,12.70,8.399,25.3170,25.3157,0.4919,88.4276,3.5757e+00,9.9990e+03,,,,,,,
CalCOFI,0701JD,065,647,28-Jan-2007 1:16:12 PM,28-Jan-2007 5:16:12 AM,34.44882,-120.52650,080.0 051.0,080.0,051.0,51.000,51.375,12.8630,12.8636,33.5740,33.5727,33.5725,33.5726,3.77910,4.57,4.56,0.0820,0.20,0.30,0.8126,13.36,9.007,25.3167,25.3154,0.4947,88.3679,4.1212e+00,9.9990e+03,,,,,,,
CalCOFI,0701JD,065,647,28-Jan-2007 1:16:14 PM,28-Jan-2007 5:16:14 AM,34.44882,-120.52650,080.0 051.0,080.0,051.0,50.000,50.367,12.8653,12.8659,33.5740,33.5727,33.5724,33.5725,3.78122,4.58,4.56,0.0748,0.18,0.30,0.8008,13.01,8.687,25.3162,25.3149,0.4944,88.3728,3.7089e+00,9.9990e+03,50,12.87 ,33.582, 4.55,.23,.30,9.0
CalCOFI,0701JD,065,647,28-Jan-2007 1:17:13 PM,28-Jan-2007 5:17:13 AM,34.44898,-120.52650,080.0 051.0,080.0,051.0,49.000,49.360,12.8710,12.8727,33.5738,33.5725,33.5723,33.5724,3.80283,4.60,4.59,0.0779,0.18,0.30,0.7588,11.78,7.547,25.3149,25.3134,0.4948,88.3645,3.9362e+00,9.9990e+03,,,,,,,
CalCOFI,0701JD,065,647,28-Jan-2007 1:17:22 PM,28-Jan-2007 5:17:22 AM,34.44900,-120.52701,080.0 051.0,080.0,051.0,48.000,48.352,12.8827,12.8855,33.5742,33.5729,33.5724,33.5725,3.84841,4.66,4.65,0.0746,0.17,0.30,0.8139,13.40,9.043,25.3129,25.3109,0.4932,88.4003,4.2844e+00,9.9990e+03,,,,,,,
CalCOFI,0701JD,065,647,28-Jan-2007 1:17:23 PM,28-Jan-2007 5:17:23 AM,34.44900,-120.52700,080.0 051.0,080.0,051.0,47.000,47.345,12.9126,12.9122,33.5747,33.5734,33.5724,33.5725,3.88325,4.70,4.69,0.0772,0.18,0.30,0.7959,12.87,8.554,25.3073,25.3056,0.4926,88.4132,4.2158e+00,9.9990e+03,,,,,,,
CalCOFI,0701JD,065,647,28-Jan-2007 1:17:25 PM,28-Jan-2007 5:17:25 AM,34.44900,-120.52700,080.0 051.0,080.0,051.0,46.000,46.338,12.9300,12.9347,33.5744,33.5731,33.5730,33.5731,3.94990,4.78,4.77,0.0780,0.18,0.30,0.7962,12.88,8.562,25.3037,25.3016,0.4930,88.4052,4.1174e+00,9.9990e+03,,,,,,,
CalCOFI,0701JD,065,647,28-Jan-2007 1:17:26 PM,28-Jan-2007 5:17:26 AM,34.44900,-120.52700,080.0 051.0,080.0,051.0,45.000,45.330,12.9471,12.9491,33.5758,33.5745,33.5733,33.5734,4.01767,4.86,4.86,0.0762,0.18,0.30,0.7646,11.95,7.705,25.3013,25.2990,0.4913,88.4415,3.8324e+00,9.9990e+03,,,,,,,
CalCOFI,0701JD,065,647,28-Jan-2007 1:17:27 PM,28-Jan-2007 5:17:27 AM,34.44900,-120.52700,080.0 051.0,080.0,051.0,44.000,44.323,12.9728,12.9740,33.5757,33.5744,33.5740,33.5741,4.06583,4.92,4.92,0.0760,0.18,0.30,0.7515,11.57,7.349,25.2961,25.2946,0.4897,88.4781,3.6478e+00,9.9990e+03,,,,,,,
CalCOFI,0701JD,065,647,28-Jan-2007 1:17:28 PM,28-Jan-2007 5:17:28 AM,34.44900,-120.52700,080.0 051.0,080.0,051.0,43.000,43.315,12.9904,12.9923,33.5772,33.5759,33.5748,33.5749,4.07267,4.93,4.92,0.0794,0.19,0.30,0.7501,11.53,7.311,25.2938,25.2916,0.4924,88.4174,3.9939e+00,9.9990e+03,,,,,,,
CalCOFI,0701JD,065,647,28-Jan-2007 1:17:29 PM,28-Jan-2007 5:17:29 AM,34.44900,-120.52700,080.0 051.0,080.0,051.0,42.000,42.308,12.9994,13.0028,33.5767,33.5754,33.5759,33.5760,4.09257,4.95,4.95,0.0865,0.21,0.31,0.7302,10.94,6.771,25.2916,25.2903,0.4959,88.3405,3.8501e+00,9.9990e+03,,,,,,,
CalCOFI,0701JD,065,647,28-Jan-2007 1:17:32 PM,28-Jan-2007 5:17:32 AM,34.44900,-120.52700,080.0 051.0,080.0,051.0,41.000,41.300,13.0056,13.0093,33.5776,33.5763,33.5761,33.5762,4.14490,5.02,5.01,0.0939,0.23,0.32,0.7372,11.15,6.961,25.2910,25.2892,0.4977,88.3003,4.3099e+00,9.9990e+03,,,,,,,
CalCOFI,0701JD,065,647,28-Jan-2007 1:17:42 PM,28-Jan-2007 5:17:42 AM,34.44900,-120.52705,080.0 051.0,080.0,051.0,40.000,40.293,13.0964,13.1095,33.5826,33.5813,33.5802,33.5803,4.27437,5.18,5.17,0.1091,0.28,0.35,0.7013,10.09,5.987,25.2768,25.2724,0.5305,87.5797,4.0366e+00,9.9990e+03,40,13.16 ,33.584, 5.33,.53,.38,4.4
CalCOFI,0701JD,065,647,28-Jan-2007 1:18:36 PM,28-Jan-2007 5:18:36 AM,34.44900,-120.52734,080.0 051.0,080.0,051.0,39.000,39.286,13.1830,13.1903,33.5834,33.5821,33.5819,33.5820,4.48900,5.44,5.44,0.1271,0.33,0.39,0.6400,8.29,4.323,25.2602,25.2576,0.5559,87.0249,3.6867e+00,9.9990e+03,,,,,,,
CalCOFI,0701JD,065,647,28-Jan-2007 1:18:36 PM,28-Jan-2007 5:18:36 AM,34.44900,-120.52734,080.0 051.0,080.0,051.0,38.000,38.278,13.2476,13.2481,33.5848,33.5835,33.5812,33.5813,4.51762,5.47,5.47,0.1275,0.33,0.39,0.6442,8.42,4.437,25.2483,25.2454,0.5636,86.8576,4.2496e+00,9.9990e+03,,,,,,,
CalCOFI,0701JD,065,647,28-Jan-2007 1:18:37 PM,28-Jan-2007 5:18:37 AM,34.44900,-120.52734,080.0 051.0,080.0,051.0,37.000,37.271,13.2744,13.2750,33.5804,33.5791,33.5795,33.5796,4.54504,5.51,5.51,0.1699,0.46,0.57,0.6327,8.08,4.125,25.2395,25.2387,0.5705,86.7077,4.1475e+00,9.9990e+03,,,,,,,
CalCOFI,0701JD,065,647,28-Jan-2007 1:18:39 PM,28-Jan-2007 5:18:39 AM,34.44901,-120.52735,080.0 051.0,080.0,051.0,36.000,36.263,13.2752,13.2756,33.5787,33.5774,33.5778,33.5779,4.56426,5.53,5.53,0.1735,0.48,0.59,0.6277,7.93,3.990,25.2380,25.2372,0.5739,86.6335,4.2489e+00,9.9990e+03,,,,,,,
CalCOFI,0701JD,065,647,28-Jan-2007 1:18:40 PM,28-Jan-2007 5:18:40 AM,34.44916,-120.52750,080.0 051.0,080.0,051.0,35.000,35.256,13.2758,13.2763,33.5778,33.5765,33.5769,33.5770,4.58053,5.55,5.55,0.1632,0.44,0.54,0.5937,6.93,3.067,25.2372,25.2363,0.5720,86.6746,3.9572e+00,9.9990e+03,,,,,,,
CalCOFI,0701JD,065,647,28-Jan-2007 1:18:41 PM,28-Jan-2007 5:18:41 AM,34.44916,-120.52750,080.0 051.0,080.0,051.0,34.000,34.248,13.2773,13.2779,33.5773,33.5760,33.5764,33.5765,4.59299,5.56,5.57,0.1622,0.44,0.53,0.5967,7.02,3.148,25.2364,25.2356,0.5704,86.7095,3.7579e+00,9.9990e+03,,,,,,,
CalCOFI,0701JD,065,647,28-Jan-2007 1:18:42 PM,28-Jan-2007 5:18:42 AM,34.44916,-120.52750,080.0 051.0,080.0,051.0,33.000,33.241,13.2784,13.2786,33.5768,33.5755,33.5761,33.5762,4.59928,5.57,5.57,0.1634,0.44,0.54,0.6094,7.40,3.493,25.2358,25.2352,0.5651,86.8251,4.1207e+00,9.9990e+03,,,,,,,
CalCOFI,0701JD,065,647,28-Jan-2007 1:18:44 PM,28-Jan-2007 5:18:44 AM,34.44916,-120.52750,080.0 051.0,080.0,051.0,32.000,32.234,13.2786,13.2788,33.5766,33.5753,33.5757,33.5758,4.60384,5.58,5.58,0.1706,0.47,0.57,0.5885,6.78,2.926,25.2355,25.2348,0.5657,86.8118,4.3051e+00,9.9990e+03,,,,,,,
CalCOFI,0701JD,065,647,28-Jan-2007 1:18:47 PM,28-Jan-2007 5:18:47 AM,34.44916,-120.52750,080.0 051.0,080.0,051.0,31.000,31.226,13.2716,13.2709,33.5776,33.5763,33.5768,33.5769,4.59647,5.57,5.57,0.1736,0.48,0.59,0.5982,7.07,3.189,25.2377,25.2372,0.5680,86.7627,4.1907e+00,9.9990e+03,,,,,,,
CalCOFI,0701JD,065,647,28-Jan-2007 1:18:52 PM,28-Jan-2007 5:18:52 AM,34.44916,-120.52750,080.0 051.0,080.0,051.0,30.000,30.219,13.2845,13.2856,33.5761,33.5748,33.5749,33.5750,4.61320,5.59,5.59,0.1902,0.53,0.68,0.5878,6.76,2.907,25.2340,25.2327,0.5553,87.0386,4.1572e+00,9.9990e+03,30,13.34 ,33.574, 5.61,.77,.46,3.1
CalCOFI,0701JD,065,647,28-Jan-2007 1:19:22 PM,28-Jan-2007 5:19:22 AM,34.44916,-120.52765,080.0 051.0,080.0,051.0,29.000,29.212,13.3391,13.3434,33.5725,33.5712,33.5712,33.5713,4.66358,5.65,5.65,0.2052,0.58,0.78,0.5875,6.75,2.899,25.2201,25.2183,0.5291,87.6105,4.4453e+00,9.9990e+03,,,,,,,
CalCOFI,0701JD,065,647,28-Jan-2007 1:19:49 PM,28-Jan-2007 5:19:49 AM,34.44916,-120.52782,080.0 051.0,080.0,051.0,28.000,28.204,13.3681,13.3701,33.5707,33.5694,33.5696,33.5697,4.68661,5.68,5.68,0.2094,0.59,0.81,0.6044,7.25,3.357,25.2128,25.2116,0.5263,87.6723,4.1493e+00,9.9990e+03,,,,,,,
CalCOFI,0701JD,065,647,28-Jan-2007 1:19:56 PM,28-Jan-2007 5:19:56 AM,34.44916,-120.52784,080.0 051.0,080.0,051.0,27.000,27.197,13.3586,13.3621,33.5717,33.5704,33.5701,33.5702,4.70665,5.70,5.71,0.2427,0.70,1.07,0.5797,6.52,2.687,25.2155,25.2136,0.5257,87.6848,4.2725e+00,9.9990e+03,,,,,,,
CalCOFI,0701JD,065,647,28-Jan-2007 1:19:57 PM,28-Jan-2007 5:19:57 AM,34.44916,-120.52784,080.0 051.0,080.0,051.0,26.000,26.190,13.3781,13.3798,33.5700,33.5687,33.5686,33.5687,4.72360,5.72,5.73,0.2007,0.56,0.75,0.5606,5.96,2.169,25.2103,25.2088,0.5256,87.6876,4.2087e+00,9.9990e+03,,,,,,,
CalCOFI,0701JD,065,647,28-Jan-2007 1:19:58 PM,28-Jan-2007 5:19:58 AM,34.44916,-120.52784,080.0 051.0,080.0,051.0,25.000,25.182,13.3875,13.3876,33.5689,33.5676,33.5679,33.5680,4.73445,5.74,5.74,0.2194,0.62,0.88,0.5794,6.51,2.679,25.2075,25.2066,0.5269,87.6570,4.0353e+00,9.9990e+03,,,,,,,
CalCOFI,0701JD,065,647,28-Jan-2007 1:20:00 PM,28-Jan-2007 5:20:00 AM,34.44916,-120.52784,080.0 051.0,080.0,051.0,24.000,24.175,13.3903,13.3908,33.5686,33.5673,33.5675,33.5676,4.73408,5.74,5.74,0.2242,0.64,0.92,0.5766,6.43,2.603,25.2067,25.2057,0.5268,87.6599,4.2114e+00,9.9990e+03,,,,,,,
CalCOFI,0701JD,065,647,28-Jan-2007 1:20:01 PM,28-Jan-2007 5:20:01 AM,34.44926,-120.52784,080.0 051.0,080.0,051.0,23.000,23.167,13.3914,13.3917,33.5685,33.5672,33.5675,33.5676,4.73296,5.74,5.74,0.2636,0.77,1.27,0.5715,6.28,2.464,25.2063,25.2055,0.5316,87.5542,4.1970e+00,9.9990e+03,,,,,,,
CalCOFI,0701JD,065,647,28-Jan-2007 1:20:03 PM,28-Jan-2007 5:20:03 AM,34.44932,-120.52784,080.0 051.0,080.0,051.0,22.000,22.160,13.3936,13.3940,33.5654,33.5641,33.5675,33.5676,4.74863,5.75,5.76,0.2286,0.65,0.96,0.5629,6.03,2.231,25.2034,25.2050,0.5294,87.6042,4.2843e+00,9.9990e+03,,,,,,,
CalCOFI,0701JD,065,647,28-Jan-2007 1:20:05 PM,28-Jan-2007 5:20:05 AM,34.44932,-120.52784,080.0 051.0,080.0,051.0,21.000,21.153,13.3994,13.4000,33.5677,33.5664,33.5667,33.5668,4.76256,5.77,5.78,0.2292,0.65,0.96,0.5382,5.31,1.561,25.2040,25.2031,0.5263,87.6722,4.2194e+00,9.9990e+03,,,,,,,
CalCOFI,0701JD,065,647,28-Jan-2007 1:20:20 PM,28-Jan-2007 5:20:20 AM,34.44932,-120.52797,080.0 051.0,080.0,051.0,20.000,20.146,13.4085,13.4115,33.5670,33.5657,33.5657,33.5658,4.77454,5.79,5.79,0.2603,0.76,1.23,0.5800,6.53,2.695,25.2016,25.2000,0.5311,87.5657,4.4274e+00,9.9990e+03,20,13.41 ,33.567, 5.80,.95,.43,2.2
CalCOFI,0701JD,065,647,28-Jan-2007 1:21:01 PM,28-Jan-2007 5:21:01 AM,34.44932,-120.52818,080.0 051.0,080.0,051.0,19.000,19.138,13.4197,13.4212,33.5661,33.5648,33.5649,33.5650,4.81359,5.83,5.84,0.2315,0.66,0.98,0.5613,5.98,2.188,25.1986,25.1974,0.5345,87.4917,4.2404e+00,9.9990e+03,,,,,,,
CalCOFI,0701JD,065,647,28-Jan-2007 1:21:02 PM,28-Jan-2007 5:21:02 AM,34.44932,-120.52818,080.0 051.0,080.0,051.0,18.000,18.131,13.4365,13.4377,33.5648,33.5635,33.5632,33.5633,4.82857,5.85,5.86,0.2519,0.73,1.16,0.5500,5.65,1.881,25.1942,25.1927,0.5347,87.4876,4.5932e+00,9.9990e+03,,,,,,,
CalCOFI,0701JD,065,647,28-Jan-2007 1:21:04 PM,28-Jan-2007 5:21:04 AM,34.44932,-120.52825,080.0 051.0,080.0,051.0,17.000,17.124,13.4490,13.4501,33.5634,33.5621,33.5622,33.5623,4.84816,5.88,5.88,0.2684,0.78,1.31,0.5518,5.70,1.930,25.1906,25.1894,0.5446,87.2712,4.4144e+00,9.9990e+03,,,,,,,
CalCOFI,0701JD,065,647,28-Jan-2007 1:21:05 PM,28-Jan-2007 5:21:05 AM,34.44932,-120.52834,080.0 051.0,080.0,051.0,16.000,16.116,13.4520,13.4528,33.5633,33.5620,33.5622,33.5623,4.85644,5.89,5.89,0.2761,0.81,1.39,0.5277,5.00,1.276,25.1899,25.1888,0.5441,87.2813,4.1672e+00,9.9990e+03,,,,,,,
CalCOFI,0701JD,065,647,28-Jan-2007 1:21:07 PM,28-Jan-2007 5:21:07 AM,34.44932,-120.52834,080.0 051.0,080.0,051.0,15.000,15.109,13.4549,13.4553,33.5632,33.5619,33.5621,33.5622,4.85646,5.89,5.89,0.2522,0.73,1.16,0.5299,5.06,1.336,25.1892,25.1882,0.5535,87.0765,4.1707e+00,9.9990e+03,,,,,,,
CalCOFI,0701JD,065,647,28-Jan-2007 1:21:08 PM,28-Jan-2007 5:21:08 AM,34.44932,-120.52834,080.0 051.0,080.0,051.0,14.000,14.102,13.4557,13.4562,33.5630,33.5617,33.5620,33.5621,4.86173,5.89,5.90,0.3029,0.90,1.69,0.5329,5.15,1.417,25.1888,25.1879,0.5525,87.0983,4.3059e+00,9.9990e+03,,,,,,,
CalCOFI,0701JD,065,647,28-Jan-2007 1:21:09 PM,28-Jan-2007 5:21:09 AM,34.44932,-120.52834,080.0 051.0,080.0,051.0,13.000,13.094,13.4608,13.4622,33.5632,33.5619,33.5618,33.5619,4.87766,5.91,5.92,0.2671,0.78,1.30,0.5161,4.66,0.961,25.1879,25.1866,0.5553,87.0374,4.0464e+00,9.9990e+03,,,,,,,
CalCOFI,0701JD,065,647,28-Jan-2007 1:21:10 PM,28-Jan-2007 5:21:10 AM,34.44932,-120.52834,080.0 051.0,080.0,051.0,12.000,12.087,13.4773,13.4815,33.5625,33.5612,33.5603,33.5604,4.88300,5.92,5.92,0.2299,0.66,0.97,0.5105,4.49,0.809,25.1840,25.1814,0.5722,86.6717,4.0228e+00,9.9990e+03,,,,,,,
CalCOFI,0701JD,065,647,28-Jan-2007 1:21:11 PM,28-Jan-2007 5:21:11 AM,34.44932,-120.52834,080.0 051.0,080.0,051.0,11.000,11.080,13.5205,13.5243,33.5599,33.5586,33.5574,33.5575,4.87876,5.91,5.92,0.2569,0.75,1.20,0.5301,5.07,1.341,25.1732,25.1705,0.5759,86.5905,4.6183e+00,9.9990e+03,,,,,,,
CalCOFI,0701JD,065,647,28-Jan-2007 1:21:41 PM,28-Jan-2007 5:21:41 AM,34.44940,-120.52850,080.0 051.0,080.0,051.0,10.000,10.073,13.5295,13.5310,33.5588,33.5575,33.5577,33.5578,4.88787,5.92,5.93,0.3075,0.92,1.74,0.5229,4.86,1.146,25.1705,25.1693,0.5644,86.8403,4.4467e+00,9.9990e+03,10,13.55 ,33.559, 5.92,1.83,.42,1.4
CalCOFI,0701JD,065,647,28-Jan-2007 1:22:12 PM,28-Jan-2007 5:22:12 AM,34.44948,-120.52868,080.0 051.0,080.0,051.0,9.000,9.065,13.5681,13.5703,33.5572,33.5559,33.5562,33.5563,4.90183,5.94,5.95,0.3247,0.98,1.95,0.5186,4.73,1.029,25.1614,25.1601,0.5584,86.9715,4.4543e+00,9.9990e+03,,,,,,,
CalCOFI,0701JD,065,647,28-Jan-2007 1:22:14 PM,28-Jan-2007 5:22:14 AM,34.44948,-120.52868,080.0 051.0,080.0,051.0,8.000,8.058,13.5773,13.5927,33.5579,33.5566,33.5566,33.5567,4.90154,5.94,5.95,0.3612,1.11,2.45,0.5165,4.67,0.972,25.1600,25.1558,0.5561,87.0205,4.2863e+00,9.9990e+03,,,,,,,
CalCOFI,0701JD,065,647,28-Jan-2007 1:22:16 PM,28-Jan-2007 5:22:16 AM,34.44948,-120.52868,080.0 051.0,080.0,051.0,7.000,7.051,13.6048,13.6129,33.5555,33.5542,33.5531,33.5532,4.89823,5.94,5.94,0.3096,0.92,1.76,0.4893,3.87,0.234,25.1525,25.1490,0.5540,87.0651,4.3213e+00,9.9990e+03,,,,,,,
CalCOFI,0701JD,065,647,28-Jan-2007 1:22:18 PM,28-Jan-2007 5:22:18 AM,34.44948,-120.52868,080.0 051.0,080.0,051.0,6.000,6.043,13.6174,13.6179,33.5526,33.5513,33.5512,33.5513,4.89111,5.93,5.93,0.2864,0.84,1.50,0.5276,4.99,1.273,25.1477,25.1465,0.5411,87.3468,4.4237e+00,9.9990e+03,,,,,,,
CalCOFI,0701JD,065,647,28-Jan-2007 1:22:31 PM,28-Jan-2007 5:22:31 AM,34.44954,-120.52876,080.0 051.0,080.0,051.0,5.000,5.036,13.6195,13.6206,33.5526,33.5513,33.5514,33.5515,4.88890,5.93,5.93,0.2843,0.84,1.48,0.5240,4.89,1.175,25.1472,25.1461,0.5377,87.4211,4.3873e+00,9.9990e+03,5,13.63 ,33.554, 5.90,1.63,.42,1.2
CalCOFI,0701JD,065,647,28-Jan-2007 1:23:20 PM,28-Jan-2007 5:23:20 AM,34.44966,-120.52901,080.0 051.0,080.0,051.0,4.000,4.029,13.6245,13.6246,33.5527,33.5514,33.5517,33.5518,4.88317,5.92,5.93,0.2952,0.87,1.60,0.5197,4.76,1.059,25.1462,25.1454,0.5373,87.4311,4.1838e+00,9.9990e+03,,,,,,,
CalCOFI,0701JD,065,647,28-Jan-2007 1:23:21 PM,28-Jan-2007 5:23:21 AM,34.44966,-120.52900,080.0 051.0,080.0,051.0,3.000,3.022,13.6219,13.6224,33.5525,33.5512,33.5515,33.5516,4.88663,5.92,5.93,0.3311,1.00,2.03,0.5289,5.03,1.308,25.1465,25.1457,0.5393,87.3873,4.8220e+00,9.9990e+03,,,,,,,
CalCOFI,0701JD,065,647,28-Jan-2007 1:23:22 PM,28-Jan-2007 5:23:22 AM,34.44966,-120.52900,080.0 051.0,080.0,051.0,2.000,2.014,13.6232,13.6239,33.5526,33.5513,33.5515,33.5516,4.89211,5.93,5.94,0.3158,0.95,1.84,0.5088,4.44,0.763,25.1463,25.1454,0.5348,87.4852,4.7997e+00,9.9990e+03,,,,,,,
CalCOFI,0701JD,065,647,28-Jan-2007 1:24:24 PM,28-Jan-2007 5:24:24 AM,34.44990,-120.52944,080.0 051.0,080.0,051.0,1.000,1.007,13.6208,13.6219,33.5526,33.5513,33.5516,33.5517,4.88148,5.92,5.92,0.2998,0.89,1.65,0.5150,4.62,0.931,25.1468,25.1458,0.5408,87.3537,4.4889e+00,9.9990e+03,1,13.62 ,33.560, 5.90,1.59,.24,1.2
